CLUSTER II-FM7 (SAMBA)

Last updated on Oct. 27, 2020, 5:53 a.m. UTC

1 26410U 00041A   20302.79083884  .00000377  00000-0  00000+0 0  9998
2 26410 132.1622 342.6599 4561317 186.6266   0.6868  0.44214171 22930
UTC
Height (km)
Latitude
Longitude
Inclination
Orbital Period
UTC large
Height (km)
Speed (km/s)
/
Latitude / Longitude
Inclination (degrees)
Orbital Period (minutes)
Azimuth
Elevation
Range (km)
Doppler Factor
iOS Compass Heading
iOS Angle

Next 30 passes for location: Hong Kong

Rise time Rise Azimuth (degrees) Set time Set Azimuth (degrees) Duration Max altitude (degrees)

No matching passes for this satellites